Granada, Spain

5:59 PM CET on February 12, 2016 (GMT +0100)
Granada

Weather History for LEGR - October, 2011

Change the Weather History Date:

Monday, October 24, 2011

  Actual Average Record
Temperature  
Mean Temperature 56 °F -  
Max Temperature 62 °F 62 °F 87 °F (2004)
Min Temperature 50 °F 40 °F 35 °F (2003)
Degree Days  
Heating Degree Days 9    
Growing Degree Days 6 (Base 50)    
Moisture  
Dew Point 54 °F    
Average Humidity 84    
Maximum Humidity 100    
Minimum Humidity 58    
Precipitation  
Precipitation 0.43 in - - ()
Sea Level Pressure  
Sea Level Pressure 29.68 in    
Wind  
Wind Speed 5 mph ()    
Max Wind Speed 14 mph    
Max Gust Speed -    
Visibility 6.2 miles    
Events Rain    
Averages and records for this station are not official NWS values.
T = Trace of Precipitation, MM = Missing Value Source: Averaged Metar Reports

Daily Weather History Graph

Daily Weather History Graph

Search for Another Location

Airport or City:

Trip Planner

Search our weather history database for the weather conditions in past years. The results will help you decide how hot, cold, wet, or windy it might be!

Date:

Astronomy

Oct. 24, 2011 Rise Set
Actual Time 8:31 AM CEST 7:27 PM CEST
Civil Twilight 8:04 AM CEST 7:53 PM CEST
Nautical Twilight 7:34 AM CEST 8:24 PM CEST
Astronomical Twilight 7:03 AM CEST 8:54 PM CEST
Moon 5:35 AM CEST (10/24) 5:41 PM CEST (10/24)
Length of Visible Light 11h 49m
Length of Day
10h 56m
Waning Crescent, 9% of the Moon is Illuminated
Oct 24
Waning Crescent
Oct 26
New
Nov 2
First Quarter
Nov 10
Full
Nov 18
Last Quarter

Hourly Weather History & Observations

Time (CEST) Temp. Dew Point Humidity Pressure Visibility Wind Dir Wind Speed Gust Speed Precip Events Conditions
2:00 AM 53 °F 49 °F 82% 29.84 in 7 mi Calm Calm - -  
6:00 AM 59.0 °F 48.2 °F 67% 29.74 in 6.2 mi South 11.5 mph - N/A   Scattered Clouds
6:30 AM 60.8 °F 48.2 °F 63% 29.74 in 6.2 mi South 8.1 mph - N/A   Scattered Clouds
7:00 AM 60.8 °F 48.2 °F 63% 29.71 in 6.2 mi South 5.8 mph - N/A   Scattered Clouds
7:30 AM 60.8 °F 50.0 °F 68% 29.71 in 6.2 mi South 8.1 mph - N/A   Scattered Clouds
8:00 AM 60 °F 49 °F 58% 29.68 in 19 mi SSE 3.5 mph - -   Mostly Cloudy
8:00 AM 60.8 °F 50.0 °F 68% 29.71 in 6.2 mi SSE 3.5 mph - N/A   Scattered Clouds
8:30 AM 60.8 °F 50.0 °F 68% 29.71 in 6.2 mi South 4.6 mph - N/A   Mostly Cloudy
9:30 AM 62.6 °F 50.0 °F 63% 29.71 in 6.2 mi SSW 12.7 mph - N/A   Mostly Cloudy
10:00 AM 60.8 °F 51.8 °F 72% 29.68 in 6.2 mi SSW 8.1 mph - N/A Rain Light Rain
10:30 AM 60.8 °F 51.8 °F 72% 29.68 in 4.3 mi SSW 3.5 mph - N/A Rain Light Rain
11:00 AM 59.0 °F 53.6 °F 82% 29.71 in 4.3 mi SSW 5.8 mph - N/A Rain Light Rain
11:10 AM 59.0 °F 55.4 °F 88% 29.71 in 4.3 mi West 5.8 mph - N/A Rain Rain
11:30 AM 59.0 °F 55.4 °F 88% 29.71 in 3.7 mi South 4.6 mph - N/A Rain Rain
12:00 PM 59.0 °F 53.6 °F 82% 29.68 in 5.0 mi SSE 9.2 mph - N/A   Mostly Cloudy
12:30 PM 59.0 °F 55.4 °F 88% 29.68 in 5.0 mi SSE 10.4 mph - N/A   Mostly Cloudy
1:00 PM 59.0 °F 53.6 °F 82% 29.68 in 3.7 mi SSW 11.5 mph - N/A Rain Light Rain
1:18 PM 59.0 °F 53.6 °F 82% 29.68 in 3.7 mi South 5.8 mph - N/A Rain Rain
1:30 PM 59.0 °F 53.6 °F 82% 29.68 in 3.7 mi SSE 4.6 mph - N/A Rain Rain
2:00 PM 58 °F 54 °F 80% 29.63 in 6 mi SSE 8.1 mph - - Rain Rain
2:00 PM 57.2 °F 53.6 °F 88% 29.65 in 4.3 mi South 8.1 mph - N/A Rain Rain
2:30 PM 59.0 °F 55.4 °F 88% 29.65 in 5.6 mi SE 4.6 mph - N/A   Mostly Cloudy
3:00 PM 59.0 °F 55.4 °F 88% 29.62 in 6.2 mi South 6.9 mph - N/A   Mostly Cloudy
3:30 PM 59.0 °F 55.4 °F 88% 29.62 in 6.2 mi SSE 13.8 mph - N/A Rain Light Rain
4:00 PM 60.8 °F 55.4 °F 82% 29.62 in 6.2 mi South 8.1 mph - N/A   Mostly Cloudy
4:30 PM 59.0 °F 57.2 °F 94% 29.62 in 6.2 mi NW 3.5 mph - N/A   Mostly Cloudy
4:42 PM 59.0 °F 57.2 °F 94% 29.62 in 3.1 mi NW 5.8 mph - N/A Rain Heavy Rain
5:00 PM 57.2 °F 57.2 °F 100% 29.62 in 3.1 mi West 3.5 mph - N/A Rain Heavy Rain
5:30 PM 59.0 °F 57.2 °F 94% 29.62 in 6.2 mi Variable 2.3 mph - N/A   Mostly Cloudy
6:00 PM 60.8 °F 59.0 °F 94% 29.62 in 6.2 mi Variable 1.2 mph - N/A   Mostly Cloudy
6:30 PM 60.8 °F 59.0 °F 94% 29.65 in 6.2 mi SSE 3.5 mph - N/A   Mostly Cloudy
7:00 PM 60.8 °F 57.2 °F 88% 29.65 in 6.2 mi Variable 2.3 mph - N/A   Mostly Cloudy
7:30 PM 59.0 °F 57.2 °F 94% 29.65 in 6.2 mi Calm Calm - N/A   Mostly Cloudy
8:00 PM 59 °F 56 °F 88% 29.64 in 19 mi Calm Calm - -   Mostly Cloudy
8:00 PM 59.0 °F 57.2 °F 94% 29.68 in 6.2 mi Calm Calm - N/A   Mostly Cloudy
8:30 PM 57.2 °F 57.2 °F 100% 29.68 in 6.2 mi Variable 1.2 mph - N/A   Mostly Cloudy
9:00 PM 57.2 °F 55.4 °F 94% 29.68 in 6.2 mi Variable 1.2 mph - N/A   Scattered Clouds
9:30 PM 57.2 °F 55.4 °F 94% 29.68 in 6.2 mi Calm Calm - N/A   Scattered Clouds
10:30 PM 55.4 °F 55.4 °F 100% 29.71 in 6.2 mi Calm Calm - N/A   Scattered Clouds
11:00 PM 55.4 °F 53.6 °F 94% 29.71 in 6.2 mi Calm Calm - N/A   Scattered Clouds
11:30 PM 53.6 °F 53.6 °F 100% 29.74 in 6.2 mi Calm Calm - N/A   Scattered Clouds